• Join FlightAware (Why Join?)
  • Login
  • US Flag 
08:29PM EST


 

Airport Tracker/Info


-or-


 

Live Flight TrackerFlight Track Log ✈ SWA34 ✈ 23-Apr-2013 ✈ KTUL - KSTL

Flight Track Log - Related Links

Times and Time Zones

All times are in EDT time to prevent confusion due to time zone crossing. See the SWA34 flight status page for this flight to view local times or setup timezone preferences in your user account.

Time Position Orientation Groundspeed Altitude Reporting Facility
EDT Latitude Longitude Course Direction KTS MPH feet Rate Location/Type
06:35PM 36.2136 -95.9744 290° West 261 300 3,900  Level Kansas City Center
06:36PM 36.2708 -95.9331 30° Northeast 261 300 6,600 2,688 Climbing Kansas City Center
06:37PM 36.3089 -95.8381 64° Northeast 298 343 9,500 2,496 Climbing Kansas City Center
06:38PM 36.3553 -95.7317 62° Northeast 339 390 11,800 2,410 Climbing Kansas City Center
06:39PM 36.4061 -95.6142 62° Northeast 376 433 14,400 2,705 Climbing Kansas City Center
06:40PM 36.4622 -95.4842 62° Northeast 396 456 17,300 2,341 Climbing Kansas City Center
06:41PM 36.5167 -95.3553 62° Northeast 414 476 19,200 2,048 Climbing Kansas City Center
06:42PM 36.5747 -95.2214 62° Northeast 435 501 21,600 2,129 Climbing Kansas City Center
06:43PM 36.6336 -95.0808 62° Northeast 443 510 23,600 1,934 Climbing Kansas City Center
06:44PM 36.6939 -94.9383 62° Northeast 457 526 25,500 1,742 Climbing Kansas City Center
06:45PM 36.7539 -94.7944 62° Northeast 465 535 27,200 1,694 Climbing Kansas City Center
06:46PM 36.8286 -94.6175 62° Northeast 474 545 29,000 1,452 Climbing Kansas City Center
06:47PM 36.8925 -94.4661 62° Northeast 487 560 30,200 1,161 Climbing Kansas City Center
06:48PM 36.9589 -94.3117 62° Northeast 499 574 31,400 1,339 Climbing Kansas City Center
06:49PM 37.0236 -94.1533 63° Northeast 506 582 32,900 1,500 Climbing Kansas City Center
06:50PM 37.0875 -93.9978 63° Northeast 504 580 34,500 1,440 Climbing Kansas City Center
06:51PM 37.1581 -93.8256 63° Northeast 497 572 35,900 1,082 Climbing Kansas City Center
06:52PM 37.2203 -93.6722 63° Northeast 493 567 36,700 528 Climbing Kansas City Center
06:53PM 37.2833 -93.5192 63° Northeast 493 567 37,000 144 Climbing Kansas City Center
06:54PM 37.3472 -93.3622 63° Northeast 499 574 37,000  Level Kansas City Center
06:55PM 37.4403 -93.2369 47° Northeast 493 567 37,000  Level Kansas City Center
06:56PM 37.5297 -93.1075 49° Northeast 490 564 37,000  Level Kansas City Center
06:57PM 37.6142 -92.9756 51° Northeast 483 556 37,000 -484 Level Kansas City Center
06:58PM 37.6986 -92.8369 52° Northeast 493 567 36,000 -960 Descending Kansas City Center
06:59PM 37.7883 -92.6947 51° Northeast 492 566 35,000 -984 Descending Kansas City Center
07:00PM 37.8731 -92.5606 51° Northeast 488 562 34,000 -1,016 Descending Kansas City Center
07:01PM 37.9742 -92.3986 52° Northeast 488 562 32,900 -968 Descending Kansas City Center
07:02PM 38.0611 -92.2636 51° Northeast 492 566 32,000 -816 Descending Kansas City Center
07:03PM 38.1464 -92.1236 52° Northeast 499 574 31,200 -871 Descending Kansas City Center
07:04PM 38.2425 -91.9686 52° Northeast 516 594 30,200 -1,268 Descending Kansas City Center
07:05PM 38.3314 -91.8244 52° Northeast 517 595 28,600 -1,887 Descending Kansas City Center
07:07PM 38.4192 -91.6803 52° Northeast 514 592 26,300 -2,419 Descending Kansas City Center
07:08PM 38.5072 -91.5389 51° Northeast 510 587 23,600 -2,516 Descending Kansas City Center
07:09PM 38.5889 -91.4022 53° Northeast 491 565 21,100 -1,920 Descending Kansas City Center
07:10PM 38.6003 -91.2267 85° East 451 519 19,600 -1,671 Descending Kansas City Center
07:10PM 38.6111 -91.1150 83° East 453 521 18,900 -2,333 Descending FAA TRACON SMA TRACON (SMA)
07:10PM 38.6239 -91.0672 71° East 462 532 18,200 -2,195 Descending FAA TRACON SMA TRACON (SMA)
07:11PM 38.6358 -91.0200 72° East 459 528 17,400 -2,550 Descending FAA TRACON SMA TRACON (SMA)
07:11PM 38.6508 -90.9614 72° East 450 518 16,500 -2,462 Descending FAA TRACON SMA TRACON (SMA)
07:11PM 38.6633 -90.9158 71° East 444 511 15,800 -1,350 Descending FAA TRACON SMA TRACON (SMA)
07:12PM 38.6733 -90.8708 74° East 433 498 15,600 -878 Descending FAA TRACON SMA TRACON (SMA)
07:12PM 38.6881 -90.8183 70° East 412 474 15,200 -1,350 Descending FAA TRACON SMA TRACON (SMA)
07:12PM 38.6983 -90.7772 72° East 398 458 14,700 -1,800 Descending FAA TRACON SMA TRACON (SMA)
07:13PM 38.7089 -90.7361 72° East 393 452 14,000 -2,550 Descending FAA TRACON SMA TRACON (SMA)
07:13PM 38.7219 -90.6844 72° East 397 457 13,000 -2,308 Descending FAA TRACON SMA TRACON (SMA)
07:13PM 38.7211 -90.6433 91° East 393 452 12,500 -1,200 Descending FAA TRACON SMA TRACON (SMA)
07:14PM 38.7094 -90.6072 112° Southeast 368 423 12,200 -1,317 Descending FAA TRACON SMA TRACON (SMA)
07:14PM 38.6953 -90.5644 113° Southeast 343 395 11,600 -1,650 Descending FAA TRACON SMA TRACON (SMA)
07:14PM 38.6836 -90.5303 114° Southeast 337 388 11,100 -1,500 Descending FAA TRACON SMA TRACON (SMA)
07:15PM 38.6736 -90.4961 111° Southeast 335 386 10,600 -1,463 Descending FAA TRACON SMA TRACON (SMA)
07:15PM 38.6647 -90.4525 105° East 331 381 10,100 -1,317 Descending FAA TRACON SMA TRACON (SMA)
07:15PM 38.6575 -90.4175 105° East 329 379 9,700 -1,385 Descending FAA TRACON SMA TRACON (SMA)
07:16PM 38.6497 -90.3747 103° East 322 371 9,200 -1,538 Descending FAA TRACON SMA TRACON (SMA)
07:16PM 38.6442 -90.3411 102° East 317 365 8,700 -1,350 Descending FAA TRACON SMA TRACON (SMA)
07:16PM 38.6386 -90.3081 102° East 311 358 8,300 -1,463 Descending FAA TRACON SMA TRACON (SMA)
07:17PM 38.6314 -90.2681 103° East 301 346 7,700 -1,650 Descending FAA TRACON SMA TRACON (SMA)
07:17PM 38.6261 -90.2367 102° East 296 341 7,200 -1,500 Descending FAA TRACON SMA TRACON (SMA)
07:17PM 38.6206 -90.2058 103° East 291 335 6,700 -1,610 Descending FAA TRACON SMA TRACON (SMA)
07:18PM 38.6042 -90.1753 124° Southeast 276 318 6,100 -1,500 Descending FAA TRACON SMA TRACON (SMA)
07:18PM 38.5886 -90.1550 134° Southeast 264 304 5,700 -1,500 Descending FAA TRACON SMA TRACON (SMA)
07:18PM 38.5689 -90.1292 134° Southeast 261 300 5,100 -1,500 Descending FAA TRACON SMA TRACON (SMA)
07:19PM 38.5617 -90.1017 109° East 272 313 4,700 -1,050 Descending FAA TRACON SMA TRACON (SMA)
07:19PM 38.5700 -90.0736 69° East 285 328 4,400 -615 Descending FAA TRACON SMA TRACON (SMA)
07:19PM 38.5894 -90.0578 32° Northeast 288 331 4,300 -450 Descending FAA TRACON SMA TRACON (SMA)
07:20PM 38.6150 -90.0575 360° North 265 305 4,100 -409 Descending FAA TRACON SMA TRACON (SMA)
07:20PM 38.6286 -90.0733 318° Northwest 235 270 4,000 -419 Descending FAA TRACON SMA TRACON (SMA)
07:20PM 38.6408 -90.0961 304° West 202 232 3,800 -324 Descending FAA TRACON SMA TRACON (SMA)
07:21PM 38.6486 -90.1122 302° West 182 209 3,800 -333 Level FAA TRACON SMA TRACON (SMA)
07:21PM 38.6564 -90.1278 303° West 169 194 3,600 -750 Descending FAA TRACON SMA TRACON (SMA)
07:21PM 38.6636 -90.1431 301° West 162 186 3,300 -1,024 Descending FAA TRACON SMA TRACON (SMA)
07:22PM 38.6728 -90.1617 302° West 162 186 2,900 -900 Descending FAA TRACON SMA TRACON (SMA)
07:22PM 38.6806 -90.1769 303° West 164 189 2,700 -900 Descending FAA TRACON SMA TRACON (SMA)
07:22PM 38.6892 -90.1947 302° West 157 181 2,300 -900 Descending FAA TRACON SMA TRACON (SMA)
07:23PM 38.6956 -90.2075 303° West 142 163 2,100 -615 Descending FAA TRACON SMA TRACON (SMA)
07:23PM 38.7014 -90.2192 303° West 129 148 1,900 -615 Descending FAA TRACON SMA TRACON (SMA)
07:23PM 38.7069 -90.2303 303° West 121 139 1,700 -732 Descending FAA TRACON SMA TRACON (SMA)
07:24PM 38.7142 -90.2444 303° West 123 142 1,400 -732 Descending FAA TRACON SMA TRACON (SMA)
07:24PM 38.7197 -90.2561 301° West 126 145 1,200 -750 Descending FAA TRACON SMA TRACON (SMA)
07:24PM 38.7269 -90.2717 301° West 130 150 900 -750 Descending FAA TRACON SMA TRACON (SMA)
07:25PM 38.7322 -90.2808 306° West 135 155 700 -600 Descending FAA TRACON SMA TRACON (SMA)